Weather History for Fort Eustis, VA

Change the Weather History Date:

Tuesday, September 17, 2013

  Actual Average Record
Temperature  
Mean Temperature 64 °F -  
Max Temperature 70 °F 77 °F 93 °F (1998)
Min Temperature 57 °F 62 °F 57 °F (2001)
Degree Days  
Heating Degree Days 2    
Growing Degree Days 14 (Base 50)    
Moisture  
Dew Point 54 °F    
Average Humidity 70    
Maximum Humidity 86    
Minimum Humidity 53    
Precipitation  
Precipitation 0.00 in - - ()
Sea Level Pressure  
Sea Level Pressure 30.31 in    
Wind  
Wind Speed 6 mph (NNE)    
Max Wind Speed 12 mph    
Max Gust Speed 16 mph    
Visibility 10 miles    
Events      
Averages and records for this station are not official NWS values.
T = Trace of Precipitation, MM = Missing Value Source: NWS Daily Summary

Daily Weather History Graph

Daily Weather History Graph

Search for Another Location

Airport:

Trip Planner

Search our weather history database for the weather conditions in past years. The results will help you decide how hot, cold, wet, or windy it might be!

Date:

Astronomy

Sep. 17, 2013 Rise Set
Actual Time 6:50 AM EDT 7:10 PM EDT
Civil Twilight 6:24 AM EDT 7:36 PM EDT
Nautical Twilight 5:53 AM EDT 8:07 PM EDT
Astronomical Twilight 5:22 AM EDT 8:38 PM EDT
Moon 5:55 PM EDT (9/17) 4:44 AM EDT (9/17)
Length of Visible Light 13h 12m
Length of Day
12h 20m
Waxing Gibbous, 96% of the Moon is Illuminated
Sep 17
Waxing Gibbous
Sep 19
Full
Sep 26
Last Quarter
Oct 4
New
Oct 11
First Quarter

Hourly Weather History & Observations

Time (EDT) Temp. Dew Point Humidity Pressure Visibility Wind Dir Wind Speed Gust Speed Precip Events Conditions
12:58 AM 65.8 °F 61.5 °F 86% 30.21 in 10.0 mi North 4.6 mph - N/A   Clear
1:58 AM 64.6 °F 60.4 °F 86% 30.21 in 10.0 mi North 5.8 mph - N/A   Clear
2:58 AM 63.7 °F 59.2 °F 85% 30.21 in 10.0 mi North 6.9 mph - N/A   Clear
3:58 AM 62.4 °F 57.0 °F 82% 30.22 in 10.0 mi NNE 5.8 mph - N/A   Clear
4:58 AM 61.9 °F 56.5 °F 82% 30.23 in 10.0 mi NNE 3.5 mph - N/A   Clear
5:58 AM 61.2 °F 56.7 °F 85% 30.26 in 10.0 mi NNE 3.5 mph - N/A   Clear
6:58 AM 61.7 °F 55.6 °F 80% 30.28 in 10.0 mi NE 10.4 mph - N/A   Clear
7:58 AM 62.6 °F 55.4 °F 77% 30.30 in 10.0 mi NE 10.4 mph - N/A   Clear
8:58 AM 63.3 °F 55.8 °F 76% 30.32 in 10.0 mi NNE 8.1 mph - N/A   Scattered Clouds
9:08 AM 62.6 °F 57.2 °F 82% 30.32 in 10.0 mi NNE 8.1 mph - N/A   Mostly Cloudy
9:58 AM 64.8 °F 56.1 °F 74% 30.35 in 10.0 mi NNE 9.2 mph - N/A   Overcast
10:43 AM 66.2 °F 53.6 °F 64% 30.35 in 10.0 mi NE 10.4 mph - N/A   Scattered Clouds
10:58 AM 68.0 °F 56.5 °F 67% 30.36 in 10.0 mi North 8.1 mph - N/A   Scattered Clouds
11:18 AM 66.2 °F 55.4 °F 68% 30.36 in 10.0 mi NNE 9.2 mph 16.1 mph N/A   Mostly Cloudy
11:58 AM 66.7 °F 54.7 °F 65% 30.38 in 10.0 mi North 11.5 mph - N/A   Mostly Cloudy
12:38 PM 68.0 °F 53.6 °F 60% 30.36 in 10.0 mi NNE 9.2 mph - N/A   Scattered Clouds
12:53 PM 66.2 °F 53.6 °F 64% 30.36 in 10.0 mi NNE 5.8 mph - N/A   Mostly Cloudy
12:58 PM 66.9 °F 54.1 °F 63% 30.37 in 10.0 mi NNE 8.1 mph - N/A   Mostly Cloudy
1:18 PM 66.2 °F 53.6 °F 64% 30.35 in 10.0 mi Variable 4.6 mph - N/A   Mostly Cloudy
1:23 PM 68.0 °F 53.6 °F 60% 30.35 in 10.0 mi NNE 9.2 mph - N/A   Mostly Cloudy
1:58 PM 68.4 °F 52.2 °F 56% 30.35 in 10.0 mi North 8.1 mph - N/A   Scattered Clouds
2:58 PM 68.7 °F 51.1 °F 53% 30.33 in 10.0 mi NNE 8.1 mph - N/A   Scattered Clouds
3:58 PM 69.3 °F 51.4 °F 53% 30.32 in 10.0 mi North 5.8 mph - N/A   Mostly Cloudy
4:58 PM 67.8 °F 50.9 °F 55% 30.31 in 10.0 mi East 6.9 mph - N/A   Mostly Cloudy
5:58 PM 66.0 °F 50.5 °F 57% 30.32 in 10.0 mi ENE 5.8 mph - N/A   Partly Cloudy
6:58 PM 64.0 °F 51.4 °F 64% 30.31 in 10.0 mi NNE 3.5 mph - N/A   Clear
7:58 PM 60.8 °F 50.7 °F 69% 30.31 in 10.0 mi ENE 2.3 mph - N/A   Clear
8:58 PM 61.2 °F 52.2 °F 72% 30.32 in 10.0 mi Variable 2.3 mph - N/A   Scattered Clouds
9:58 PM 60.8 °F 51.4 °F 71% 30.33 in 10.0 mi NNE 2.3 mph - N/A   Clear
10:58 PM 58.5 °F 50.4 °F 74% 30.33 in 10.0 mi NNE 4.6 mph - N/A   Scattered Clouds
11:58 PM 57.7 °F 49.6 °F 74% 30.33 in 10.0 mi Variable 2.3 mph - N/A   Clear